Location: Newark
(60.6561°N, 46.5772°E)
Time: 06:16:40
(UTC+00:00)

N. Korean satellite - Visible Passes

Search period start: 22 September 2019 00:00
Search period end: 02 October 2019 00:00
Orbit: 455 x 509 km, 97.2° (Epoch: 21 September)

Date Brightness Start Highest point End Pass type
(mag) Time Alt. Az. Time Alt. Az. Time Alt. Az.
24 Sep 10.2 01:41:29 10° ENE 01:42:55 12° E 01:44:21 10° ESE visible
27 Sep 9.8 01:58:28 10° NE 02:00:49 17° E 02:03:09 10° SE visible
28 Sep 10.5 01:34:33 10° ENE 01:35:16 10° E 01:36:00 10° E visible
28 Sep 10.7 15:27:53 10° W 15:28:31 10° W 15:29:08 10° WNW visible
01 Oct 10.0 01:51:06 10° NE 01:53:10 15° E 01:55:14 10° SE visible
